Location: Unspecified
(40.7945°N, 111.1337°W)
Time: 17:39:28
(UTC-06:00)

Cosmos 1674 - Pass Details

Date: 28 March 2019
Orbit: 497 x 518 km, 82.5° (Epoch: 25 April)

Event Time Altitude Azimuth Distance (km) Brightness Sun altitude
Rises 20:21:13 0° 360° (N) 2,614 6.4 -7.6°
Reaches altitude 10° 20:23:27 10° 8° (N) 1,728 5.4 -8.0°
Maximum altitude 20:27:01 39° 79° (ENE) 772 3.1 -8.7°
Drops below altitude 10° 20:30:36 10° 149° (SSE) 1,727 5.0 -9.3°
Sets 20:32:49 0° 157° (SSE) 2,611 5.9 -9.7°
Enters shadow 20:32:58 -1° 157° (SSE) 2,676 6.0 -9.8°
